Change the Weather History Date:

Monday, February 18, 2013

  Actual Average Record
Temperature  
Mean Temperature 34 °F -  
Max Temperature 46 °F 46 °F 76 °F (1976)
Min Temperature 21 °F 29 °F 8 °F (1973)
Degree Days  
Heating Degree Days 32    
Moisture  
Dew Point 10 °F    
Average Humidity 35    
Maximum Humidity 68    
Minimum Humidity 21    
Precipitation  
Precipitation 0.00 in - - ()
Sea Level Pressure  
Sea Level Pressure 30.33 in    
Wind  
Wind Speed 7 mph (WSW)    
Max Wind Speed 14 mph    
Max Gust Speed 18 mph    
Visibility 10 miles    
Events      
Averages and records for this station are not official NWS values.
T = Trace of Precipitation, MM = Missing Value Source: NWS Daily Summary

Daily Weather History Graph

Daily Weather History Graph

Search for Another Location

Airport or City:

Trip Planner

Search our weather history database for the weather conditions in past years. The results will help you decide how hot, cold, wet, or windy it might be!

Date:

Astronomy

Feb. 18, 2013 Rise Set
Actual Time 6:50 AM EST 5:49 PM EST
Civil Twilight 6:24 AM EST 6:15 PM EST
Nautical Twilight 5:54 AM EST 6:46 PM EST
Astronomical Twilight 5:23 AM EST 7:16 PM EST
Moon 11:37 AM EST (2/18) 1:24 AM EST (2/18)
Length of Visible Light 11h 51m
Length of Day
10h 58m
First Quarter, 58% of the Moon is Illuminated
Feb 18
First Quarter
Feb 25
Full
Mar 4
Last Quarter
Mar 11
New
Mar 19
First Quarter

Hourly Weather History & Observations

Time (EST) Temp. Windchill Dew Point Humidity Pressure Visibility Wind Dir Wind Speed Gust Speed Precip Events Conditions
12:54 AM 28.0 °F 20.0 °F 3.0 °F 34% 30.26 in 10.0 mi NW 8.1 mph - N/A   Clear
1:54 AM 28.0 °F 20.8 °F 3.9 °F 36% 30.29 in 10.0 mi WNW 6.9 mph - N/A   Clear
2:54 AM 28.0 °F 18.6 °F 3.9 °F 36% 30.30 in 10.0 mi WNW 10.4 mph - N/A   Clear
3:54 AM 28.0 °F 20.0 °F 5.0 °F 38% 30.30 in 10.0 mi NW 8.1 mph - N/A   Clear
4:54 AM 27.0 °F - 7.0 °F 43% 30.32 in 10.0 mi Calm Calm - N/A   Clear
5:54 AM 25.0 °F 20.7 °F 9.0 °F 51% 30.35 in 10.0 mi West 3.5 mph - N/A   Clear
6:54 AM 21.0 °F - 12.0 °F 68% 30.37 in 10.0 mi Calm Calm - N/A   Clear
7:54 AM 30.0 °F 24.1 °F 10.0 °F 43% 30.40 in 10.0 mi WNW 5.8 mph - N/A   Clear
8:54 AM 34.0 °F 28.0 °F 6.1 °F 31% 30.41 in 10.0 mi NW 6.9 mph - N/A   Clear
9:54 AM 37.0 °F 30.4 °F 6.1 °F 28% 30.41 in 10.0 mi NW 9.2 mph - N/A   Clear
10:54 AM 37.0 °F 31.0 °F 7.0 °F 29% 30.41 in 10.0 mi West 8.1 mph 18.4 mph N/A   Clear
11:54 AM 41.0 °F 35.2 °F 9.0 °F 27% 30.39 in 10.0 mi West 9.2 mph - N/A   Clear
12:54 PM 43.0 °F 37.2 °F 5.0 °F 21% 30.37 in 10.0 mi NW 10.4 mph - N/A   Clear
1:54 PM 43.0 °F 39.5 °F 7.0 °F 23% 30.35 in 10.0 mi Variable 5.8 mph - N/A   Clear
2:54 PM 45.0 °F 41.8 °F 7.0 °F 21% 30.32 in 10.0 mi SSW 5.8 mph - N/A   Clear
3:54 PM 46.0 °F 42.5 °F 8.1 °F 21% 30.31 in 10.0 mi SW 6.9 mph - N/A   Clear
4:54 PM 46.0 °F 41.9 °F 9.0 °F 22% 30.30 in 10.0 mi SSW 8.1 mph - N/A   Clear
5:54 PM 42.1 °F 37.7 °F 15.1 °F 34% 30.30 in 10.0 mi SSW 6.9 mph - N/A   Clear
6:54 PM 41.0 °F 36.4 °F 15.1 °F 35% 30.31 in 10.0 mi SSW 6.9 mph - N/A   Clear
7:54 PM 41.0 °F - 16.0 °F 36% 30.31 in 10.0 mi North - - N/A   Clear
8:54 PM 42.1 °F 36.1 °F 18.0 °F 38% 30.30 in 10.0 mi SSW 10.4 mph - N/A   Clear
9:54 PM 41.0 °F 34.7 °F 18.0 °F 40% 30.29 in 10.0 mi SSW 10.4 mph - N/A   Clear
10:54 PM 41.0 °F 35.2 °F 19.0 °F 41% 30.27 in 10.0 mi SSW 9.2 mph - N/A   Clear
11:54 PM 39.9 °F 32.1 °F 21.9 °F 49% 30.27 in 10.0 mi SSW 13.8 mph - N/A   Clear